[[{"header":{"parameterUnit":"m.s-1","parameterCategory":1,"la1":30.2991,"la2":30.254,"lo1":-89.0895,"lo2":-89.0444,"dy":0.0017,"dx":0.0017,"nx":28,"ny":28,"refTime":"2025-04-29T03:00:00:Z","depth":0,"parameterNumber":2,"parameterNumberName":"U-component_of_WINDS"},"data":[0,0,0,0,0,0,0,0,0,0,0,0,0,0,0,0,0,0,0,0,0,0,0,0,0,0,0,0,0,0,0,0,0,0,0,0,0,0,0,0,0,0,0,0,0,0,0,0,0,0,0,0,0,0,0,0,0,0,-0.6886,-0.6885,0,-0.6816,-0.6815,-0.6814,-0.6765,-0.6765,-0.6764,-0.6764,-0.6693,-0.6692,-0.669,0,0,0,0,0,0,0,0,0,0,0,0,0,-0.6978,-0.6977,-0.6886,-0.6885,-0.6884,-0.6816,-0.6815,-0.6814,-0.6765,-0.6765,-0.6764,-0.6764,-0.6694,-0.6692,-0.669,0,0,0,0,0,0,0,0,0,0,0,0,0,-0.6927,-0.6977,-0.6886,-0.6851,-0.6848,-0.6816,-0.6815,-0.6814,-0.6765,-0.6765,-0.6764,-0.6764,-0.6694,-0.6692,-0.669,-0.6688,0,0,-0.6683,-0.6682,0,0,0,0,0,0,0,0,-0.693,-0.6923,-0.6857,-0.6854,-0.6849,-0.6799,-0.6822,-0.6772,-0.6766,-0.6797,-0.6764,-0.6763,-0.6729,-0.6724,-0.6712,-0.6684,-0.6681,-0.6683,-0.6681,-0.668,-0.668,0,0,0,0,0,0,0,-0.6933,-0.6926,-0.6858,-0.6856,-0.6852,-0.684,-0.6832,-0.6812,-0.6767,-0.6794,-0.679,-0.6783,-0.6727,-0.6714,-0.671,-0.668,-0.6683,-0.6681,-0.6679,-0.6679,-0.6648,-0.6649,0,0,0,0,0,0,-0.6942,-0.6929,-0.686,-0.6856,-0.6889,-0.6839,-0.683,-0.6816,-0.6767,-0.6759,-0.6783,-0.6781,-0.6718,-0.6713,-0.6707,-0.6702,-0.668,-0.6678,-0.6677,-0.6648,-0.6648,-0.6649,0,0,0,0,0,0,-0.6944,-0.6936,-0.6863,-0.6892,-0.6881,-0.6838,-0.6822,-0.6815,-0.6802,-0.6759,-0.6751,-0.6779,-0.6718,-0.6711,-0.6693,-0.6699,-0.6677,-0.6675,-0.6647,-0.6648,-0.6649,-0.6691,0,0,0,0,0,0,-0.6947,-0.6937,-0.6935,-0.6892,-0.688,-0.685,-0.6823,-0.6814,-0.6798,-0.6794,-0.6753,-0.6745,-0.6717,-0.6697,-0.6691,-0.6695,-0.6673,-0.6646,-0.6647,-0.6648,-0.6689,-0.6693,-0.6697,0,0,0,0,0,-0.6951,-0.695,-0.6936,-0.6928,-0.6877,-0.685,-0.6843,-0.6811,-0.6799,-0.6797,-0.6769,-0.6746,-0.6699,-0.6695,-0.6688,-0.6692,-0.6646,-0.6647,-0.6648,-0.6687,-0.6692,-0.6697,0,0,0,0,0,0,-0.6996,-0.6944,-0.6927,-0.6912,-0.6886,-0.6842,-0.6838,-0.6817,-0.6794,-0.6791,-0.6751,-0.6743,-0.6729,-0.6709,-0.6706,-0.6688,-0.667,-0.667,-0.6702,-0.6706,-0.671,-0.6715,-0.6672,0,0,0,0,0,-0.7004,-0.6986,-0.6942,-0.6933,-0.6921,-0.6882,-0.6869,-0.6846,-0.6818,-0.6806,-0.6777,-0.6751,-0.673,-0.6717,-0.6695,-0.6686,-0.6676,-0.6685,-0.6689,-0.6692,-0.6693,-0.6687,-0.6691,-0.6653,-0.6653,-0.6653,0,0,-0.7021,-0.699,-0.6981,-0.6942,-0.6918,-0.6902,-0.6873,-0.6856,-0.6843,-0.6804,-0.6785,-0.6764,-0.6731,-0.6718,-0.6711,-0.6701,-0.6701,-0.6694,-0.6697,-0.6695,-0.6689,-0.6693,-0.6696,-0.6654,-0.6654,-0.6654,0,0,-0.7042,-0.7017,-0.7008,-0.6985,-0.6951,-0.6925,-0.6923,-0.6882,-0.6866,-0.6847,-0.6818,-0.6802,-0.6767,-0.6746,-0.673,-0.6746,-0.6724,-0.674,-0.676,-0.6755,-0.6758,-0.6761,-0.6767,-0.6769,-0.674,-0.674,-0.674,0,-0.7068,-0.7041,-0.7006,-0.6991,-0.6975,-0.6938,-0.6929,-0.6909,-0.6869,-0.6859,-0.6848,-0.6804,-0.678,-0.6761,-0.6765,-0.6754,-0.6751,-0.6744,-0.6761,-0.6763,-0.6765,-0.677,-0.6772,-0.6742,-0.6742,-0.6742,-0.6742,0,-0.7074,-0.7056,-0.7052,-0.7015,-0.6998,-0.6986,-0.695,-0.6938,-0.6917,-0.6893,-0.6875,-0.6845,-0.6817,-0.6811,-0.679,-0.679,-0.6785,-0.6768,-0.6749,-0.6771,-0.6775,-0.6777,-0.6746,-0.6745,-0.6744,-0.6744,0,0,-0.7121,-0.7065,-0.7065,-0.7048,-0.7008,-0.6993,-0.698,-0.6953,-0.6943,-0.6918,-0.6906,-0.6878,-0.6862,-0.6845,-0.6821,-0.6817,-0.6832,-0.6801,-0.6799,-0.6808,-0.6832,-0.6845,-0.6848,-0.6818,-0.6818,-0.6818,-0.6834,0,-0.7138,-0.7111,-0.708,-0.7065,-0.7048,-0.7014,-0.7002,-0.6977,-0.6955,-0.6938,-0.6913,-0.6894,-0.6874,-0.6864,-0.6858,-0.6832,-0.6837,-0.683,-0.6807,-0.6807,-0.6817,-0.685,-0.6863,-0.688,-0.6836,-0.6836,-0.6836,0,-0.7152,-0.7128,-0.7112,-0.7074,-0.7065,-0.7056,-0.7029,-0.7013,-0.6984,-0.6968,-0.6949,-0.6924,-0.691,-0.6893,-0.6873,-0.6869,-0.6858,-0.6844,-0.6844,-0.6841,-0.6823,-0.6847,-0.6884,-0.6887,-0.6839,-0.6838,-0.6838,0,-0.719,-0.7153,-0.7138,-0.7125,-0.708,-0.7074,-0.7056,-0.7026,-0.7012,-0.6989,-0.6979,-0.6955,-0.6941,-0.6923,-0.6893,-0.6884,-0.6877,-0.6857,-0.6863,-0.6864,-0.6863,-0.6864,-0.6899,-0.6856,-0.6856,-0.6856,-0.6856,0,-0.7211,-0.7202,-0.7155,-0.7146,-0.7135,-0.71,-0.7091,-0.7069,-0.7043,-0.703,-0.6999,-0.6988,-0.6948,-0.6932,-0.6909,-0.6896,-0.689,-0.6877,-0.6871,-0.688,-0.6882,-0.6872,-0.6871,-0.6857,-0.6857,-0.6856,-0.6856,0,-0.7251,-0.7218,-0.72,-0.7159,-0.7149,-0.7143,-0.7109,-0.7099,-0.7075,-0.7059,-0.7054,-0.7016,-0.6996,-0.6964,-0.6935,-0.6919,-0.6911,-0.69,-0.692,-0.6917,-0.6925,-0.6925,-0.6955,-0.6958,-0.6913,-0.6914,-0.6914,0,-0.7266,-0.7259,-0.7217,-0.7206,-0.7188,-0.7171,-0.7156,-0.7122,-0.7108,-0.7075,-0.707,-0.7047,-0.7027,-0.6997,-0.6968,-0.6945,-0.6934,-0.6947,-0.6931,-0.694,-0.6935,-0.6936,-0.6936,-0.695,-0.6951,-0.6952,-0.6952,0,-0.7298,-0.7283,-0.7263,-0.7237,-0.7221,-0.72,-0.7177,-0.717,-0.713,-0.7117,-0.7096,-0.708,-0.7051,-0.7029,-0.7003,-0.6984,-0.6962,-0.6957,-0.6958,-0.6967,-0.6979,-0.6973,-0.6931,-0.6957,-0.6956,-0.6956,-0.6956,-0.6955,-0.7326,-0.7318,-0.7288,-0.7267,-0.7246,-0.7226,-0.7215,-0.719,-0.7172,-0.7145,-0.7126,-0.7106,-0.7078,-0.7041,-0.7024,-0.7008,-0.6998,-0.6999,-0.6999,-0.7,-0.7003,-0.6982,-0.7003,-0.7003,-0.7003,-0.7003,-0.7003,0,-0.7357,-0.7336,-0.7317,-0.7286,-0.727,-0.725,-0.7224,-0.7212,-0.7195,-0.7171,-0.7152,-0.7129,-0.7108,-0.7078,-0.7055,-0.7048,-0.7038,-0.7044,-0.7044,-0.704,-0.7013,-0.7015,-0.7053,-0.7053,-0.7053,-0.7053,-0.7053,-0.7053,-0.7371,-0.7357,-0.7338,-0.7313,-0.7292,-0.7273,-0.726,-0.7241,-0.7222,-0.7197,-0.7179,-0.7159,-0.7133,-0.7108,-0.7088,-0.708,-0.7073,-0.7082,-0.7071,-0.7046,-0.7042,-0.7037,-0.7039,-0.7081,-0.7081,-0.7099,-0.7099,-0.7099]},{"header":{"parameterUnit":"m.s-1","parameterCategory":1,"la1":30.2991,"la2":30.254,"lo1":-89.0895,"lo2":-89.0444,"dy":0.0017,"dx":0.0017,"nx":28,"ny":28,"refTime":"2025-04-29T03:00:00:Z","depth":0,"parameterNumber":3,"parameterNumberName":"V-component_of_WINDS"},"data":[0,0,0,0,0,0,0,0,0,0,0,0,0,0,0,0,0,0,0,0,0,0,0,0,0,0,0,0,0,0,0,0,0,0,0,0,0,0,0,0,0,0,0,0,0,0,0,0,0,0,0,0,0,0,0,0,0,0,4.7795,4.7795,0,4.778,4.778,4.778,4.7775,4.7775,4.7775,4.7775,4.7756,4.7756,4.7755,0,0,0,0,0,0,0,0,0,0,0,0,0,4.7819,4.7819,4.7796,4.7795,4.7795,4.778,4.778,4.778,4.7775,4.7775,4.7775,4.7776,4.7756,4.7756,4.7755,0,0,0,0,0,0,0,0,0,0,0,0,0,4.7807,4.7819,4.7796,4.7791,4.7791,4.778,4.778,4.7779,4.7775,4.7775,4.7775,4.7776,4.7757,4.7756,4.7755,4.7746,0,0,4.7752,4.7752,0,0,0,0,0,0,0,0,4.7808,4.7806,4.7792,4.7792,4.7791,4.778,4.7781,4.7768,4.7775,4.7781,4.7775,4.7776,4.7764,4.7762,4.7759,4.7745,4.7744,4.7752,4.7751,4.7751,4.7751,0,0,0,0,0,0,0,4.7808,4.7807,4.7789,4.7792,4.7791,4.7789,4.7788,4.7779,4.7771,4.778,4.778,4.7779,4.7763,4.776,4.7758,4.7744,4.7752,4.7751,4.7751,4.775,4.7724,4.7724,0,0,0,0,0,0,4.781,4.7807,4.779,4.7789,4.78,4.7789,4.7787,4.7783,4.7772,4.777,4.7778,4.7778,4.7761,4.7759,4.7758,4.7748,4.7751,4.775,4.775,4.7724,4.7724,4.7724,0,0,0,0,0,0,4.7811,4.7809,4.779,4.7798,4.7796,4.7788,4.7784,4.7783,4.7779,4.777,4.7769,4.7776,4.7761,4.7759,4.775,4.7747,4.775,4.7749,4.7725,4.7724,4.7724,4.7727,0,0,0,0,0,0,4.7812,4.7809,4.7806,4.7798,4.7795,4.7783,4.7784,4.7782,4.7778,4.7778,4.7768,4.7766,4.7761,4.7751,4.7749,4.7746,4.7748,4.7725,4.7724,4.7724,4.7727,4.7727,4.7727,0,0,0,0,0,4.7813,4.7807,4.7806,4.7804,4.7791,4.7783,4.7781,4.7777,4.7778,4.7774,4.7769,4.7766,4.7748,4.775,4.7747,4.7744,4.7725,4.7725,4.7724,4.7727,4.7727,4.7727,0,0,0,0,0,0,4.7813,4.7805,4.7805,4.7796,4.779,4.7782,4.7778,4.7776,4.7769,4.7769,4.7763,4.7761,4.7752,4.7747,4.775,4.7736,4.7736,4.7735,4.7739,4.7739,4.7739,4.774,4.7747,0,0,0,0,0,4.7812,4.7807,4.78,4.7793,4.7791,4.7785,4.7781,4.7778,4.7772,4.7769,4.7763,4.7756,4.7748,4.7743,4.7736,4.7727,4.7725,4.7723,4.7723,4.7723,4.7722,4.7718,4.7717,4.7723,4.7723,4.7723,0,0,4.781,4.7805,4.7802,4.7793,4.7789,4.7783,4.7783,4.7776,4.7772,4.7768,4.7759,4.7754,4.7746,4.7737,4.7733,4.7733,4.772,4.7723,4.7723,4.7722,4.7717,4.7717,4.7716,4.7723,4.7723,4.7723,0,0,4.7804,4.78,4.7794,4.779,4.7783,4.778,4.7779,4.7771,4.7769,4.776,4.7757,4.7752,4.7739,4.7734,4.7729,4.7723,4.772,4.7721,4.7719,4.7715,4.7715,4.7714,4.7712,4.7712,4.772,4.772,4.772,0,4.7801,4.7793,4.7791,4.7785,4.7781,4.7779,4.7773,4.7769,4.776,4.7757,4.7758,4.7743,4.7737,4.7727,4.7726,4.7723,4.7721,4.7721,4.7715,4.7715,4.7714,4.7712,4.7712,4.772,4.772,4.772,4.772,0,4.7791,4.7786,4.7782,4.7775,4.7771,4.7765,4.7761,4.7757,4.7756,4.7752,4.7744,4.7737,4.7729,4.7727,4.7724,4.7717,4.7717,4.7717,4.7717,4.7714,4.7712,4.7711,4.772,4.772,4.772,4.772,0,0,4.7783,4.7777,4.7775,4.7773,4.7766,4.7762,4.7756,4.775,4.7747,4.7741,4.7736,4.7726,4.7726,4.7721,4.7718,4.7715,4.7711,4.7714,4.7714,4.7714,4.7703,4.7704,4.7703,4.771,4.771,4.7709,4.7704,0,4.7776,4.7767,4.7765,4.7756,4.7752,4.7751,4.7746,4.7741,4.7738,4.7733,4.7729,4.7723,4.7723,4.772,4.7717,4.7712,4.7709,4.7713,4.7704,4.7704,4.7706,4.7702,4.7702,4.7698,4.7703,4.7703,4.7703,0,4.7766,4.7762,4.7753,4.7749,4.7747,4.7743,4.7738,4.7733,4.7728,4.7726,4.7722,4.772,4.7714,4.7715,4.7707,4.7709,4.7706,4.7704,4.7703,4.7702,4.7703,4.7701,4.7696,4.7695,4.7702,4.7702,4.7702,0,4.7761,4.7753,4.7748,4.7746,4.774,4.7738,4.7735,4.7731,4.7727,4.7722,4.772,4.7714,4.7711,4.7706,4.7703,4.7704,4.7695,4.7696,4.7693,4.7693,4.769,4.769,4.7685,4.7689,4.7689,4.7689,4.7689,0,4.7753,4.7748,4.7746,4.7742,4.7737,4.7735,4.7729,4.7727,4.7723,4.7719,4.7717,4.7713,4.7709,4.7704,4.7701,4.7695,4.7693,4.7691,4.7691,4.7691,4.7692,4.7689,4.7689,4.7688,4.7689,4.7689,4.7689,0,4.7746,4.7744,4.7738,4.7735,4.7734,4.773,4.7727,4.7723,4.7721,4.7716,4.7715,4.7711,4.7705,4.7702,4.7694,4.7692,4.7686,4.7685,4.7688,4.7687,4.7685,4.7685,4.7677,4.7676,4.7681,4.768,4.768,0,4.7741,4.7737,4.7734,4.7732,4.773,4.7726,4.7723,4.7722,4.7719,4.7714,4.7711,4.7706,4.7702,4.7693,4.7689,4.7684,4.7683,4.7681,4.7682,4.7683,4.7683,4.7683,4.7683,4.768,4.768,4.768,4.768,0,4.7732,4.7732,4.7728,4.7725,4.7723,4.772,4.7717,4.7715,4.7712,4.7709,4.7705,4.7702,4.7695,4.769,4.7685,4.7682,4.768,4.768,4.7679,4.7679,4.7681,4.7681,4.7687,4.768,4.768,4.768,4.768,4.768,4.7726,4.7723,4.7721,4.7717,4.7716,4.7713,4.771,4.7709,4.7705,4.7701,4.77,4.7695,4.7691,4.7684,4.7681,4.7677,4.7677,4.7676,4.7676,4.7675,4.7676,4.7683,4.7676,4.7676,4.7676,4.7676,4.7676,0,4.7717,4.7716,4.7713,4.771,4.7707,4.7708,4.7705,4.7703,4.7699,4.7697,4.7693,4.7688,4.7684,4.7681,4.7676,4.7674,4.7673,4.7672,4.7672,4.7672,4.7675,4.7677,4.7673,4.7673,4.7673,4.7673,4.7673,4.7673,4.7712,4.7708,4.7708,4.7703,4.7702,4.7698,4.7696,4.7694,4.7692,4.7687,4.7684,4.7683,4.768,4.7676,4.7672,4.7671,4.7669,4.7669,4.7668,4.7671,4.7671,4.7672,4.7673,4.7669,4.7669,4.7664,4.7664,4.7664]}]]